FW7227 Weather Reports


time (UTC)temp
C
wind
direction
speed
KPH
gust
KPH
rain 1hr
cm
rain 24hr
cm
rain mn
cm
humidity
%
barometer
mb
20260502202057 18 139 3.2 8.0 0.00 0.00 0.00 54 1014.7
20260502201557 18 137 3.2 8.0 0.00 0.00 0.00 55 1014.8
20260502201057 18 137 3.2 6.4 0.00 0.00 0.00 54 1014.8
20260502200558 18 137 3.2 6.4 0.00 0.00 0.00 53 1014.8
20260502200058 18 138 3.2 8.0 0.00 0.00 0.00 53 1014.9
20260502195557 18 137 3.2 8.0 0.00 0.00 0.00 52 1014.9
20260502195056 18 126 3.2 6.4 0.00 0.00 0.00 53 1015.0
20260502194556 18 124 1.6 9.7 0.00 0.00 0.00 52 1015.0
20260502194100 19 124 3.2 9.7 0.00 0.00 0.00 52 1014.9
20260502193556 19 121 4.8 9.7 0.00 0.00 0.00 52 1014.9
20260502193103 19 144 4.8 9.7 0.00 0.00 0.00 51 1015.0
20260502192558 19 150 4.8 9.7 0.00 0.00 0.00 50 1015.0
20260502192057 20 130 3.2 8.0 0.00 0.00 0.00 48 1014.9
20260502191602 20 131 3.2 8.0 0.00 0.00 0.00 47 1014.9
20260502191057 20 127 3.2 8.0 0.00 0.00 0.00 45 1014.8
20260502190558 20 188 3.2 6.4 0.00 0.00 0.00 44 1014.9
20260502190107 20 188 3.2 6.4 0.00 0.00 0.00 44 1014.9
20260502185556 21 198 3.2 4.8 0.00 0.00 0.00 44 1014.8
20260502185057 21 360 3.2 4.8 0.00 0.00 0.00 43 1014.8
20260502184601 21 360 3.2 4.8 0.00 0.00 0.00 43 1014.8
20260502184057 21 360 3.2 4.8 0.00 0.00 0.00 43 1014.8
20260502183557 22 360 3.2 4.8 0.00 0.00 0.00 42 1014.7
20260502183111 22 360 1.6 4.8 0.00 0.00 0.00 41 1014.7
20260502182558 22 199 1.6 4.8 0.00 0.00 0.00 40 1014.8
20260502182056 22 199 1.6 4.8 0.00 0.00 0.00 39 1014.7
20260502181557 23 199 1.6 4.8 0.00 0.00 0.00 38 1014.8
20260502181057 23 198 3.2 4.8 0.00 0.00 0.00 37 1014.7
20260502180602 23 198 1.6 6.4 0.00 0.00 0.00 36 1014.8
20260502164057 25 222 4.8 9.7 0.00 0.00 0.00 32 1015.3
20260502163557 25 220 4.8 8.0 0.00 0.00 0.00 30 1015.4
20260502163057 26 230 3.2 12.9 0.00 0.00 0.00 31 1015.4
20260502162557 26 221 4.8 14.5 0.00 0.00 0.00 30 1015.5
20260502162057 26 205 6.4 14.5 0.00 0.00 0.00 30 1015.5
20260502161623 26 208 3.2 9.7 0.00 0.00 0.00 29 1015.6
20260502161057 26 187 4.8 9.7 0.00 0.00 0.00 30 1015.7
20260502160556 26 210 3.2 9.7 0.00 0.00 0.00 31 1015.7
20260502152059 27 253 4.8 14.5 0.00 0.00 0.00 27 1016.1
20260502151609 27 211 4.8 19.3 0.00 0.00 0.00 30 1016.1
20260502151056 27 236 6.4 19.3 0.00 0.00 0.00 28 1016.1
20260502150557 27 209 8.0 19.3 0.00 0.00 0.00 29 1016.3
20260502130556 27 236 9.7 20.9 0.00 0.00 0.00 29 1017.5
20260502123556 27 269 4.8 17.7 0.00 0.00 0.00 26 1017.9
20260502123100 27 215 9.7 17.7 0.00 0.00 0.00 27 1017.9
20260502122557 27 245 4.8 22.5 0.00 0.00 0.00 27 1018.0
20260502122056 27 223 12.9 22.5 0.00 0.00 0.00 27 1018.0
20260502121559 27 223 8.0 19.3 0.00 0.00 0.00 24 1018.1
20260502121057 27 230 8.0 19.3 0.00 0.00 0.00 25 1018.1
20260502120558 27 161 8.0 16.1 0.00 0.00 0.00 24 1018.1
20260502115556 27 148 3.2 14.5 0.00 0.00 0.00 28 1018.3
20260502115059 27 134 4.8 17.7 0.00 0.00 0.00 28 1018.4
20260502114557 26 188 6.4 17.7 0.00 0.00 0.00 28 1018.5
20260502114059 26 247 8.0 16.1 0.00 0.00 0.00 29 1018.5
20260502113556 26 240 8.0 14.5 0.00 0.00 0.00 31 1018.6
20260502113057 26 0 6.4 17.7 0.00 0.00 0.00 30 1018.7
20260502112555 26 235 8.0 17.7 0.00 0.00 0.00 31 1018.8
20260502112055 26 228 8.0 17.7 0.00 0.00 0.00 30 1018.9
20260502111606 26 242 4.8 14.5 0.00 0.00 0.00 30 1018.9
20260502111055 26 243 4.8 20.9 0.00 0.00 0.00 32 1019.0
20260502110557 26 229 11.3 20.9 0.00 0.00 0.00 32 1019.0
20260502110058 26 238 6.4 16.1 0.00 0.00 0.00 32 1019.1
20260502105558 25 221 6.4 14.5 0.00 0.00 0.00 35 1019.2
20260502105057 25 188 6.4 19.3 0.00 0.00 0.00 35 1019.3
20260502104559 25 223 9.7 19.3 0.00 0.00 0.00 33 1019.3
20260502104056 25 223 9.7 19.3 0.00 0.00 0.00 34 1019.4
20260502103558 25 232 9.7 20.9 0.00 0.00 0.00 32 1019.5
20260502103059 25 232 11.3 20.9 0.00 0.00 0.00 33 1019.6
20260502102557 25 181 9.7 19.3 0.00 0.00 0.00 32 1019.6
20260502102056 25 221 4.8 19.3 0.00 0.00 0.00 37 1019.7
20260502101555 25 238 8.0 20.9 0.00 0.00 0.00 35 1019.8
20260502101055 25 224 6.4 22.5 0.00 0.00 0.00 33 1019.9
20260502100556 25 164 12.9 22.5 0.00 0.00 0.00 35 1020.0
20260502091056 23 196 9.7 24.1 0.00 0.00 0.00 34 1020.4
20260502090558 23 199 9.7 19.3 0.00 0.00 0.00 34 1020.3
20260502090114 23 213 8.0 19.3 0.00 0.00 0.00 35 1020.4
20260502071057 17 159 1.6 9.7 0.00 0.00 0.00 56 1021.1
20260502070556 17 178 3.2 12.9 0.00 0.00 0.00 54 1021.3
20260502070109 17 144 4.8 12.9 0.00 0.00 0.00 55 1021.2
20260502065556 16 360 1.6 8.0 0.00 0.00 0.00 57 1021.3
20260502065056 16 360 3.2 8.0 0.00 0.00 0.00 58 1021.4
20260502064557 16 360 3.2 12.9 0.00 0.00 0.00 57 1021.4
20260502064056 16 360 6.4 12.9 0.00 0.00 0.00 58 1021.4
20260502063556 15 360 4.8 16.1 0.00 0.00 0.00 58 1021.5
20260502063057 15 360 6.4 16.1 0.00 0.00 0.00 59 1021.5
20260502062556 15 360 6.4 14.5 0.00 0.00 0.00 59 1021.5
20260502062056 15 360 4.8 12.9 0.00 0.00 0.00 60 1021.5
20260502061557 14 360 4.8 12.9 0.00 0.00 0.00 62 1021.5
20260502061055 13 0 0.0 9.7 0.00 0.00 0.00 64 1021.5
20260502060559 13 175 3.2 9.7 0.00 0.00 0.00 65 1021.6
20260502060055 13 175 3.2 9.7 0.00 0.00 0.00 65 1021.6
20260502055557 13 0 3.2 12.9 0.00 0.00 0.00 65 1021.6
20260502055056 12 163 4.8 14.5 0.00 0.00 0.00 65 1021.6
20260502054556 12 171 6.4 14.5 0.00 0.00 0.00 67 1021.6
20260502054056 12 146 3.2 11.3 0.00 0.00 0.00 67 1021.7
20260502053559 11 159 3.2 11.3 0.00 0.00 0.00 68 1021.7
20260502053124 11 360 3.2 9.7 0.00 0.00 0.00 69 1021.7
20260502052557 11 360 3.2 9.7 0.00 0.00 0.00 69 1021.7
20260502052100 11 360 3.2 9.7 0.00 0.00 0.00 70 1021.7
20260502051614 10 360 3.2 8.0 0.00 0.00 0.00 71 1021.8
20260502051100 10 360 3.2 6.4 0.00 0.00 0.00 71 1021.7
20260502050601 10 360 1.6 6.4 0.00 0.00 0.00 71 1021.7
20260502050059 10 360 1.6 9.7 0.00 0.00 0.00 71 1021.8
20260502045557 10 360 3.2 9.7 0.00 0.00 0.00 71 1021.7
20260502045059 10 360 4.8 8.0 0.00 0.00 0.00 71 1021.7
20260502044557 10 360 1.6 6.4 0.00 0.00 0.00 71 1021.7
20260502044059 10 360 3.2 6.4 0.00 0.00 0.00 70 1021.8
20260502043557 10 360 1.6 8.0 0.00 0.00 0.00 70 1021.8
20260502043111 10 360 1.6 9.7 0.00 0.00 0.00 70 1021.8
20260502042558 10 360 3.2 12.9 0.00 0.00 0.00 70 1021.7
20260502042058 10 360 4.8 12.9 0.00 0.00 0.00 70 1021.7
20260502041626 10 360 4.8 12.9 0.00 0.00 0.00 70 1021.7
20260502041057 10 360 4.8 12.9 0.00 0.00 0.00 70 1021.8
20260502040557 10 360 4.8 12.9 0.00 0.00 0.00 69 1021.7
20260502040057 10 360 4.8 8.0 0.00 0.00 0.00 68 1021.7
20260502035557 10 360 3.2 8.0 0.00 0.00 0.00 68 1021.8
20260502035057 10 360 3.2 8.0 0.00 0.00 0.00 67 1021.8
20260502034555 10 360 1.6 6.4 0.00 0.00 0.00 66 1021.8
20260502034056 11 360 1.6 6.4 0.00 0.00 0.00 66 1021.9
20260502033559 11 360 1.6 9.7 0.00 0.00 0.00 66 1021.9
20260502033107 11 360 0.0 12.9 0.00 0.00 0.00 66 1021.9
20260502032557 11 360 3.2 12.9 0.00 0.00 0.00 66 1021.9
20260502032057 11 360 3.2 14.5 0.00 0.00 0.00 66 1022.0
20260502031556 10 360 4.8 14.5 0.00 0.00 0.00 67 1022.1
20260502031058 10 360 6.4 12.9 0.00 0.00 0.00 67 1022.1
20260502030558 10 360 6.4 14.5 0.00 0.00 0.00 68 1022.0
20260502030058 10 360 6.4 16.1 0.00 0.00 0.00 68 1022.0
20260502025557 10 360 8.0 16.1 0.00 0.00 0.00 68 1022.2
20260502025057 10 360 6.4 12.9 0.00 0.00 0.00 68 1022.3
20260502024557 10 360 6.4 12.9 0.00 0.00 0.00 68 1022.2
20260502024058 10 360 4.8 12.9 0.00 0.00 0.00 68 1022.3
20260502023559 10 360 4.8 9.7 0.00 0.00 0.00 68 1022.4
20260502023059 10 360 4.8 9.7 0.00 0.00 0.00 68 1022.5
20260502022556 10 360 4.8 9.7 0.00 0.00 0.00 68 1022.5
20260502022056 10 360 6.4 9.7 0.00 0.00 0.00 67 1022.5
20260502021557 10 360 3.2 8.0 0.00 0.00 0.00 66 1022.6
20260502021056 10 360 3.2 8.0 0.00 0.00 0.00 66 1022.7
20260502020558 11 360 3.2 8.0 0.00 0.00 0.00 65 1022.7
20260502020106 11 360 3.2 8.0 0.00 0.00 0.00 64 1022.7
20260502015556 11 360 3.2 6.4 0.00 0.00 0.00 64 1022.6
20260502015056 11 360 1.6 6.4 0.00 0.00 0.00 63 1022.8
20260502014559 11 360 0.0 8.0 0.00 0.00 0.00 64 1022.8
20260502014056 11 0 1.6 8.0 0.00 0.00 0.00 63 1022.8
20260502013557 12 360 1.6 9.7 0.00 0.00 0.00 62 1022.8
20260502013101 12 360 3.2 9.7 0.00 0.00 0.00 62 1022.9
20260502012559 12 360 4.8 9.7 0.00 0.00 0.00 62 1022.9
20260502012056 12 360 3.2 9.7 0.00 0.00 0.00 62 1022.9
20260502011603 12 360 4.8 9.7 0.00 0.00 0.00 62 1023.0
20260502011056 12 360 4.8 9.7 0.00 0.00 0.00 62 1023.0
20260502010558 12 360 3.2 9.7 0.00 0.00 0.00 62 1023.1
20260502005556 12 360 4.8 14.5 0.00 0.00 0.00 62 1023.1
20260502005056 12 360 3.2 12.9 0.00 0.00 0.00 62 1023.2
20260502004555 12 360 6.4 12.9 0.00 0.00 0.00 63 1023.2
20260502004057 12 360 4.8 12.9 0.00 0.00 0.00 63 1023.2
20260502003556 11 360 4.8 12.9 0.00 0.00 0.00 63 1023.2
20260502003055 11 360 4.8 14.5 0.00 0.00 0.00 63 1023.4
20260502002557 11 360 4.8 14.5 0.00 0.00 0.00 64 1023.4
20260502002056 11 360 6.4 12.9 0.00 0.00 0.00 64 1023.4
20260502001602 11 360 3.2 9.7 0.00 0.00 0.00 64 1023.5
20260502001056 11 360 4.8 8.0 0.00 0.00 0.00 64 1023.5
20260502000556 11 360 3.2 14.5 0.00 0.00 0.00 65 1023.5
20260502000058 11 360 4.8 14.5 0.00 0.00 0.00 65 1023.6
20260501235559 11 360 4.8 16.1 0.00 0.00 0.00 65 1023.6
20260501235056 11 360 4.8 16.1 0.00 0.00 0.00 65 1023.7
20260501234557 11 360 3.2 9.7 0.00 0.00 0.00 65 1023.8
20260501234056 11 360 3.2 12.9 0.00 0.00 0.00 65 1023.7
20260501233556 11 360 3.2 12.9 0.00 0.00 0.00 65 1023.8
20260501233109 11 360 4.8 12.9 0.00 0.00 0.00 65 1023.9
20260501232555 11 360 6.4 12.9 0.00 0.00 0.00 65 1023.9
20260501232056 11 360 4.8 9.7 0.00 0.00 0.00 65 1023.8
20260501231629 11 360 3.2 6.4 0.00 0.00 0.00 64 1023.8
20260501231056 11 360 1.6 8.0 0.00 0.00 0.00 64 1023.8
20260501230556 11 360 1.6 8.0 0.00 0.00 0.00 64 1023.9
20260501230055 12 360 1.6 8.0 0.00 0.00 0.00 64 1023.9
20260501225556 12 360 1.6 6.4 0.00 0.00 0.00 63 1023.9
20260501225058 12 360 1.6 6.4 0.00 0.00 0.00 63 1023.9
20260501224558 12 0 1.6 6.4 0.00 0.00 0.00 62 1023.9
20260501224059 12 360 0.0 6.4 0.00 0.00 0.00 62 1023.9
20260501223600 12 360 0.0 6.4 0.00 0.00 0.00 62 1023.9
20260501223129 12 360 1.6 8.0 0.00 0.00 0.00 62 1024.0
20260501222556 12 360 1.6 8.0 0.00 0.00 0.00 62 1023.9
20260501222056 12 360 0.0 8.0 0.00 0.00 0.00 62 1024.0
20260501221557 12 360 3.2 8.0 0.00 0.00 0.00 62 1024.0
20260501221056 12 360 1.6 8.0 0.00 0.00 0.00 61 1024.0
20260501220556 12 360 3.2 8.0 0.00 0.00 0.00 61 1024.0
20260501220055 12 360 3.2 8.0 0.00 0.00 0.00 61 1024.0
20260501215556 12 360 1.6 6.4 0.00 0.00 0.00 60 1024.0
20260501215059 13 360 1.6 8.0 0.00 0.00 0.00 60 1024.0
20260501214557 13 360 1.6 8.0 0.00 0.00 0.00 59 1024.0
20260501214055 13 360 1.6 6.4 0.00 0.00 0.00 59 1024.0
20260501213555 13 360 1.6 6.4 0.00 0.00 0.00 59 1024.0
20260501213100 13 360 0.0 6.4 0.00 0.00 0.00 58 1024.0
20260501212556 13 360 1.6 9.7 0.00 0.00 0.00 58 1024.1
20260501212056 13 360 3.2 9.7 0.00 0.00 0.00 58 1024.1
20260501211556 13 360 3.2 9.7 0.00 0.00 0.00 57 1024.1
20260501211055 13 360 1.6 9.7 0.00 0.00 0.00 57 1024.2
20260501210556 14 0 3.2 9.7 0.00 0.00 0.00 56 1024.2
20260501210100 14 360 4.8 12.9 0.00 0.00 0.00 56 1024.1
20260501205556 14 360 3.2 12.9 0.00 0.00 0.00 56 1024.2
20260501205055 14 360 6.4 14.5 0.00 0.00 0.00 56 1024.2
20260501204625 14 360 6.4 14.5 0.00 0.00 0.00 55 1024.2
20260501204055 15 360 6.4 14.5 0.00 0.00 0.00 55 1024.3
20260501203556 15 360 4.8 17.7 0.00 0.00 0.00 54 1024.3
20260501203056 15 360 8.0 17.7 0.00 0.00 0.00 54 1024.3
20260501202556 15 360 6.4 14.5 0.00 0.00 0.00 53 1024.3